AXB116Z VOBL-VOMM

Flight info

Callsign AXB116Z
Flight time 0h 32m
Altitude 19000
Route BIA W116 MMV
Aircraft B738/M-SDGIJ1LRWY/SB1

Departure

Time 2026-05-07 16:22
Airport Kempegowda International Airport Bengaluru (VOBL)

Arrival

Time 2026-05-07 16:54
Airport Chennai International Airport (VOMM)
Time Latitude Longitude Altitude Speed Heading
2026-05-07 15:58 13.20170 77.71039 2968 ft 0 kts 179°
2026-05-07 16:09 13.20177 77.71039 2968 ft 2 kts 179°
2026-05-07 16:09 13.20192 77.71039 2967 ft 2 kts 189°
2026-05-07 16:10 13.20207 77.71043 2967 ft 2 kts 205°
2026-05-07 16:10 13.20220 77.71051 2966 ft 2 kts 221°
2026-05-07 16:10 13.20230 77.71062 2966 ft 2 kts 236°
2026-05-07 16:10 13.20237 77.71075 2966 ft 2 kts 251°
2026-05-07 16:11 13.20240 77.71091 2965 ft 1 kts 266°
2026-05-07 16:11 13.20240 77.71098 2965 ft 1 kts 272°
2026-05-07 16:11 13.20240 77.71101 2965 ft 0 kts 271°
2026-05-07 16:11 13.20240 77.71100 2965 ft 0 kts 271°
2026-05-07 16:13 13.20240 77.71096 2965 ft 1 kts 270°
2026-05-07 16:14 13.20240 77.71084 2965 ft 2 kts 270°
2026-05-07 16:14 13.20240 77.71063 2966 ft 3 kts 270°
2026-05-07 16:14 13.20240 77.71028 2967 ft 5 kts 270°
2026-05-07 16:14 13.20240 77.70981 2968 ft 7 kts 269°
2026-05-07 16:15 13.20239 77.70924 2970 ft 9 kts 270°
2026-05-07 16:15 13.20240 77.70847 2973 ft 11 kts 271°
2026-05-07 16:15 13.20242 77.70755 2977 ft 14 kts 270°
2026-05-07 16:15 13.20242 77.70640 2979 ft 17 kts 270°
2026-05-07 16:16 13.20242 77.70509 2981 ft 16 kts 271°
2026-05-07 16:16 13.20250 77.70412 2983 ft 11 kts 298°
2026-05-07 16:16 13.20318 77.70390 2984 ft 11 kts
2026-05-07 16:16 13.20403 77.70391 2985 ft 13 kts
2026-05-07 16:17 13.20498 77.70388 2987 ft 13 kts 345°
2026-05-07 16:17 13.20531 77.70308 2989 ft 13 kts 270°
2026-05-07 16:17 13.20532 77.70201 2991 ft 16 kts 271°
2026-05-07 16:17 13.20533 77.70077 2991 ft 19 kts 271°
2026-05-07 16:18 13.20535 77.69926 2990 ft 22 kts 271°
2026-05-07 16:18 13.20535 77.69754 2991 ft 24 kts 270°
2026-05-07 16:18 13.20537 77.69585 2995 ft 22 kts 270°
2026-05-07 16:18 13.20538 77.69434 2998 ft 18 kts 268°
2026-05-07 16:19 13.20538 77.69317 3002 ft 15 kts 271°
2026-05-07 16:19 13.20540 77.69199 3005 ft 17 kts 271°
2026-05-07 16:19 13.20542 77.69070 3007 ft 18 kts 270°
2026-05-07 16:19 13.20543 77.68935 3010 ft 19 kts 270°
2026-05-07 16:20 13.20543 77.68784 3011 ft 21 kts 270°
2026-05-07 16:20 13.20547 77.68651 3011 ft 10 kts 290°
2026-05-07 16:20 13.20601 77.68619 3012 ft 7 kts 355°
2026-05-07 16:20 13.20653 77.68619 3012 ft 8 kts
2026-05-07 16:21 13.20711 77.68658 3012 ft 11 kts 69°
2026-05-07 16:21 13.20716 77.68743 3011 ft 16 kts 91°
2026-05-07 16:21 13.20712 77.69041 3010 ft 69 kts 91°
2026-05-07 16:21 13.20705 77.69731 2998 ft 121 kts 90°
2026-05-07 16:22 13.20697 77.70751 2971 ft 162 kts 90°
2026-05-07 16:22 13.20692 77.71944 3338 ft 165 kts 90°
2026-05-07 16:22 13.20756 77.73140 3714 ft 172 kts 75°
2026-05-07 16:22 13.21402 77.74184 4077 ft 180 kts 42°
2026-05-07 16:23 13.22300 77.75124 4321 ft 195 kts 54°
2026-05-07 16:23 13.23029 77.76405 4472 ft 217 kts 62°
2026-05-07 16:23 13.23767 77.77776 4971 ft 224 kts 60°
2026-05-07 16:23 13.24593 77.79240 5215 ft 249 kts 61°
2026-05-07 16:24 13.25475 77.80897 4783 ft 273 kts 62°
2026-05-07 16:24 13.26373 77.82590 4652 ft 260 kts 65°
2026-05-07 16:24 13.26873 77.84304 4701 ft 243 kts 85°
2026-05-07 16:24 13.26877 77.86092 4986 ft 258 kts 91°
2026-05-07 16:25 13.26839 77.87957 5719 ft 264 kts 90°
2026-05-07 16:25 13.26817 77.89920 5946 ft 284 kts 90°
2026-05-07 16:25 13.26795 77.91942 6308 ft 283 kts 90°
2026-05-07 16:25 13.26773 77.93949 7063 ft 281 kts 90°
2026-05-07 16:26 13.26752 77.95962 7750 ft 283 kts 90°
2026-05-07 16:26 13.26731 77.97994 8421 ft 285 kts 89°
2026-05-07 16:26 13.26711 78.00021 9060 ft 288 kts 89°
2026-05-07 16:26 13.26697 78.01420 9478 ft 290 kts 89°
2026-05-07 16:27 13.26669 78.04189 10580 ft 294 kts 89°
2026-05-07 16:27 13.26647 78.06306 11359 ft 300 kts 89°
2026-05-07 16:27 13.26609 78.08459 12143 ft 304 kts 93°
2026-05-07 16:27 13.26203 78.10620 12936 ft 309 kts 105°
2026-05-07 16:28 13.25562 78.12717 13732 ft 311 kts 105°
2026-05-07 16:28 13.24923 78.14862 14462 ft 315 kts 105°
2026-05-07 16:28 13.24287 78.17027 15209 ft 318 kts 105°
2026-05-07 16:28 13.23648 78.19192 15923 ft 321 kts 105°
2026-05-07 16:29 13.22997 78.21398 16624 ft 324 kts 105°
2026-05-07 16:29 13.22351 78.23589 17294 ft 327 kts 105°
2026-05-07 16:29 13.21677 78.25871 17970 ft 330 kts 105°
2026-05-07 16:29 13.21012 78.28125 18619 ft 332 kts 105°
2026-05-07 16:30 13.20343 78.30392 19247 ft 335 kts 105°
2026-05-07 16:30 13.19663 78.32692 19831 ft 339 kts 105°
2026-05-07 16:30 13.18975 78.35023 20003 ft 345 kts 105°
2026-05-07 16:30 13.18273 78.37399 19985 ft 341 kts 105°
2026-05-07 16:31 13.17724 78.39250 19990 ft 338 kts 105°
2026-05-07 16:31 13.17032 78.41592 19995 ft 338 kts 105°
2026-05-07 16:31 13.16353 78.43886 19994 ft 338 kts 105°
2026-05-07 16:31 13.15661 78.46227 19993 ft 339 kts 105°
2026-05-07 16:32 13.14974 78.48547 19993 ft 339 kts 105°
2026-05-07 16:32 13.14295 78.50841 19987 ft 339 kts 105°
2026-05-07 16:32 13.13600 78.53186 19974 ft 339 kts 105°
2026-05-07 16:32 13.12912 78.55507 19961 ft 338 kts 105°
2026-05-07 16:33 13.12234 78.57796 19948 ft 338 kts 105°
2026-05-07 16:33 13.11545 78.60118 19934 ft 338 kts 105°
2026-05-07 16:33 13.10853 78.62451 19921 ft 338 kts 105°
2026-05-07 16:33 13.10171 78.64750 19908 ft 338 kts 105°
2026-05-07 16:34 13.09484 78.67064 19893 ft 338 kts 105°
2026-05-07 16:34 13.08796 78.69379 19878 ft 338 kts 105°
2026-05-07 16:34 13.08110 78.71688 19864 ft 337 kts 105°
2026-05-07 16:34 13.07421 78.74007 19852 ft 337 kts 105°
2026-05-07 16:35 13.06736 78.76310 19847 ft 337 kts 105°
2026-05-07 16:35 13.06048 78.78623 19845 ft 337 kts 105°
2026-05-07 16:35 13.05361 78.80932 19842 ft 337 kts 105°
2026-05-07 16:35 13.04680 78.83221 19840 ft 337 kts 105°
2026-05-07 16:36 13.03987 78.85550 19838 ft 336 kts 105°
2026-05-07 16:36 13.03299 78.87859 19836 ft 336 kts 105°
2026-05-07 16:36 13.02615 78.90156 19835 ft 336 kts 105°
2026-05-07 16:36 13.01930 78.92454 19833 ft 336 kts 105°
2026-05-07 16:37 13.01247 78.94750 19832 ft 336 kts 105°
2026-05-07 16:37 13.00571 78.97016 19826 ft 331 kts 105°
2026-05-07 16:37 12.99892 78.99289 19837 ft 336 kts 105°
2026-05-07 16:37 12.99189 79.01650 19842 ft 349 kts 105°
2026-05-07 16:38 12.98472 79.04060 19835 ft 361 kts 105°
2026-05-07 16:38 12.97727 79.06555 19690 ft 371 kts 105°
2026-05-07 16:38 12.97084 79.08718 19110 ft 396 kts 105°
2026-05-07 16:38 12.96253 79.11529 18317 ft 426 kts 105°
2026-05-07 16:39 12.95386 79.14482 17493 ft 434 kts 105°
2026-05-07 16:39 12.94510 79.17448 16682 ft 428 kts 105°
2026-05-07 16:39 12.93650 79.20361 15879 ft 422 kts 105°
2026-05-07 16:39 12.92805 79.23222 15117 ft 416 kts 105°
2026-05-07 16:40 12.91969 79.26054 14356 ft 411 kts 105°
2026-05-07 16:40 12.91158 79.28802 13613 ft 406 kts 105°
2026-05-07 16:40 12.90339 79.31575 12860 ft 401 kts 105°
2026-05-07 16:40 12.89529 79.34318 12138 ft 400 kts 106°
2026-05-07 16:41 12.88737 79.36993 11639 ft 388 kts 106°
2026-05-07 16:41 12.87963 79.39607 11329 ft 373 kts 105°
2026-05-07 16:41 12.87223 79.42104 11175 ft 355 kts 105°
2026-05-07 16:41 12.86527 79.44453 11002 ft 339 kts 105°
2026-05-07 16:42 12.85856 79.46721 10829 ft 325 kts 105°
2026-05-07 16:42 12.85264 79.48920 10604 ft 314 kts 98°
2026-05-07 16:42 12.85280 79.51131 10236 ft 305 kts 75°
2026-05-07 16:42 12.85961 79.53148 9868 ft 294 kts 66°
2026-05-07 16:43 12.86709 79.55079 9722 ft 283 kts 68°
2026-05-07 16:43 12.87408 79.56959 9312 ft 282 kts 68°
2026-05-07 16:43 12.88099 79.58823 8958 ft 279 kts 68°
2026-05-07 16:43 12.88771 79.60637 8614 ft 277 kts 68°
2026-05-07 16:44 12.89454 79.62481 8265 ft 274 kts 68°
2026-05-07 16:44 12.90118 79.64278 7926 ft 271 kts 68°
2026-05-07 16:44 12.90790 79.66097 7581 ft 269 kts 68°
2026-05-07 16:44 12.91455 79.67896 7239 ft 266 kts 68°
2026-05-07 16:45 12.92104 79.69653 6905 ft 264 kts 68°
2026-05-07 16:45 12.92754 79.71412 6571 ft 261 kts 68°
2026-05-07 16:45 12.93397 79.73155 6239 ft 259 kts 68°
2026-05-07 16:45 12.94037 79.74888 5911 ft 256 kts 69°
2026-05-07 16:46 12.94666 79.76594 5585 ft 254 kts 69°
2026-05-07 16:46 12.95297 79.78302 5261 ft 256 kts 69°
2026-05-07 16:46 12.95924 79.80004 5079 ft 252 kts 69°
2026-05-07 16:46 12.96541 79.81678 5013 ft 252 kts 69°
2026-05-07 16:47 12.97173 79.83392 4917 ft 253 kts 69°
2026-05-07 16:47 12.97769 79.85009 4766 ft 244 kts 69°
2026-05-07 16:47 12.98339 79.86556 4758 ft 229 kts 69°
2026-05-07 16:47 12.98741 79.88094 4739 ft 216 kts 86°
2026-05-07 16:48 12.98461 79.89555 4568 ft 208 kts 116°
2026-05-07 16:48 12.97555 79.90665 4350 ft 201 kts 136°
2026-05-07 16:48 12.96568 79.91565 4122 ft 196 kts 135°
2026-05-07 16:48 12.95571 79.92499 3913 ft 195 kts 135°
2026-05-07 16:49 12.94547 79.93458 3693 ft 195 kts 135°
2026-05-07 16:49 12.93552 79.94388 3529 ft 192 kts 135°
2026-05-07 16:49 12.92558 79.95318 3434 ft 193 kts 134°
2026-05-07 16:49 12.91749 79.96394 3330 ft 191 kts 115°
2026-05-07 16:50 12.91314 79.97581 3250 ft 189 kts 101°
2026-05-07 16:50 12.91192 79.98922 3160 ft 188 kts 83°
2026-05-07 16:50 12.91669 80.00167 3066 ft 187 kts 53°
2026-05-07 16:50 12.92462 80.01234 2952 ft 188 kts 54°
2026-05-07 16:51 12.93191 80.02335 2743 ft 187 kts 59°
2026-05-07 16:51 12.93824 80.03516 2498 ft 184 kts 64°
2026-05-07 16:51 12.94347 80.04652 2252 ft 168 kts 65°
2026-05-07 16:51 12.94791 80.05700 2054 ft 158 kts 68°
2026-05-07 16:52 12.95192 80.06735 1819 ft 149 kts 69°
2026-05-07 16:52 12.95565 80.07716 1649 ft 146 kts 69°
2026-05-07 16:52 12.95930 80.08688 1433 ft 148 kts 70°
2026-05-07 16:52 12.96303 80.09679 1224 ft 146 kts 70°
2026-05-07 16:53 12.96667 80.10646 1027 ft 145 kts 70°
2026-05-07 16:53 12.97035 80.11623 855 ft 145 kts 69°
2026-05-07 16:53 12.97401 80.12595 647 ft 146 kts 70°
2026-05-07 16:53 12.97762 80.13561 452 ft 145 kts 70°
2026-05-07 16:54 12.98127 80.14531 256 ft 145 kts 71°
2026-05-07 16:54 12.98490 80.15496 59 ft 142 kts 69°
2026-05-07 16:54 12.98795 80.16310 43 ft 91 kts 70°
2026-05-07 16:54 12.98956 80.16743 46 ft 45 kts 67°
2026-05-07 16:55 12.99063 80.17020 45 ft 37 kts 70°
2026-05-07 16:55 12.99113 80.17165 46 ft 11 kts 90°
2026-05-07 16:55 12.99052 80.17217 48 ft 13 kts 156°
2026-05-07 16:55 12.98963 80.17236 49 ft 10 kts 198°
2026-05-07 16:56 12.98917 80.17168 50 ft 14 kts 248°
2026-05-07 16:56 12.98873 80.17052 49 ft 20 kts 249°
2026-05-07 16:56 12.98760 80.16756 47 ft 15 kts 244°
2026-05-07 16:57 12.98689 80.16746 48 ft 11 kts 159°
2026-05-07 16:57 12.98608 80.16766 49 ft 12 kts 199°
2026-05-07 16:57 12.98570 80.16703 49 ft 2 kts 230°
2026-05-07 16:57 12.98534 80.16697 49 ft 5 kts 167°
2026-05-07 16:58 12.98508 80.16705 50 ft 1 kts 162°
2026-05-07 16:58 12.98498 80.16708 50 ft 1 kts 161°
2026-05-07 16:58 12.98492 80.16711 50 ft 0 kts 161°